New York, NY

1:17 PM EST on December 06, 2019 (GMT -0500)
La Guardia

Weather History for KLGA - October, 2019

Change the Weather History Date:

Tuesday, October 22, 2019

  Actual Average Record
Temperature  
Mean Temperature 59 °F 56 °F  
Max Temperature 63 °F 63 °F 83 °F (1979)
Min Temperature 55 °F 49 °F 33 °F (1940)
Degree Days  
Heating Degree Days 6 9  
Month to date heating degree days 105 140  
Since 1 July heating degree days 108 175  
Cooling Degree Days 0 0  
Month to date cooling degree days 29 20  
Year to date cooling degree days 1484 1210  
Growing Degree Days 9 (Base 50)    
Moisture  
Dew Point 54 °F    
Average Humidity 84    
Maximum Humidity 96    
Minimum Humidity 51    
Precipitation  
Precipitation 0.46 in 0.13 in 2.15 in (1958)
Month to date precipitation 3.59 2.73  
Year to date precipitation 40.07 36.71  
Snow  
Snow 0.00 in 0.00 in - ()
Month to date snowfall 0.0 0.0  
Since 1 July snowfall 0.0 0.0  
Snow Depth 0.00 in    
Sea Level Pressure  
Sea Level Pressure 29.97 in    
Wind  
Wind Speed 9 mph ()    
Max Wind Speed 18 mph    
Max Gust Speed 22 mph    
Visibility 5.2 miles    
Events Rain    
T = Trace of Precipitation, MM = Missing Value Source: Averaged Metar Reports

Daily Weather History Graph

Daily Weather History Graph

Search for Another Location

Airport or City:

Astronomy

Oct. 22, 2019 Rise Set
Actual Time 7:14 AM EDT 6:05 PM EDT
Civil Twilight 6:46 AM EDT 6:33 PM EDT
Nautical Twilight 6:14 AM EDT 7:04 PM EDT
Astronomical Twilight 5:42 AM EDT 7:36 PM EDT
Moon 12:17 AM EDT (10/22) 3:15 PM EDT (10/22)
Length of Visible Light 11h 46m
Length of Day
10h 50m
Last Quarter, 37% of the Moon is Illuminated
Oct 22
Last Quarter
Oct 27
New
Nov 4
First Quarter
Nov 12
Full
Nov 19
Last Quarter

Hourly Weather History & Observations

Time (EDT) Temp. Dew Point Humidity Pressure Visibility Wind Dir Wind Speed Gust Speed Precip Events Conditions
12:51 AM 57.0 °F 46.0 °F 67% 30.12 in 10.0 mi East 5.8 mph - N/A   Mostly Cloudy
1:51 AM 57.0 °F 42.1 °F 57% 30.10 in 10.0 mi East 9.2 mph - N/A   Mostly Cloudy
2:51 AM 57.0 °F 39.9 °F 53% 30.10 in 10.0 mi East 6.9 mph - N/A   Mostly Cloudy
3:51 AM 57.0 °F 39.9 °F 53% 30.07 in 10.0 mi East 8.1 mph - N/A   Overcast
4:51 AM 57.0 °F 46.0 °F 67% 30.09 in 10.0 mi NNE 3.5 mph - N/A   Overcast
5:51 AM 55.0 °F 44.1 °F 67% 30.07 in 10.0 mi ENE 9.2 mph - N/A   Overcast
6:05 AM 55.0 °F 44.1 °F 67% 30.07 in 10.0 mi East 5.8 mph - N/A   Overcast
6:37 AM 57.0 °F 48.0 °F 72% 30.07 in 10.0 mi East 9.2 mph - N/A   Overcast
6:51 AM 57.0 °F 48.9 °F 74% 30.07 in 10.0 mi ENE 6.9 mph - N/A   Overcast
7:51 AM 57.0 °F 50.0 °F 77% 30.07 in 10.0 mi East 9.2 mph - N/A   Overcast
8:17 AM 57.0 °F 51.1 °F 81% 30.07 in 10.0 mi East 11.5 mph - N/A   Overcast
8:51 AM 57.0 °F 51.1 °F 81% 30.06 in 10.0 mi East 9.2 mph - N/A   Scattered Clouds
9:37 AM 57.9 °F 52.0 °F 81% 30.08 in 10.0 mi ENE 9.2 mph - N/A   Overcast
9:51 AM 57.9 °F 52.0 °F 81% 30.08 in 10.0 mi NE 6.9 mph - N/A   Overcast
10:41 AM 57.9 °F 53.1 °F 84% 30.07 in 2.5 mi East 11.5 mph - 0.00 in Rain Light Rain
10:51 AM 57.9 °F 54.0 °F 87% 30.06 in 2.5 mi East 10.4 mph - 0.00 in Rain Light Rain
10:56 AM 57.9 °F 54.0 °F 87% 30.06 in 1.8 mi ENE 9.2 mph - 0.00 in Rain Light Rain
11:17 AM 57.0 °F 54.0 °F 89% 30.06 in 1.8 mi East 9.2 mph - 0.00 in   Overcast
11:25 AM 57.0 °F 54.0 °F 89% 30.06 in 2.0 mi ENE 10.4 mph - 0.00 in Rain Light Rain
11:51 AM 57.9 °F 55.0 °F 90% 30.05 in 2.0 mi ENE 10.4 mph - 0.00 in Rain Light Rain
12:31 PM 59.0 °F 55.9 °F 90% 30.03 in 4.0 mi East 11.5 mph - 0.00 in   Light Drizzle
12:48 PM 59.0 °F 55.4 °F 88% 30.01 in 4.0 mi East 12.7 mph - 0.00 in   Overcast
12:51 PM 60.1 °F 55.9 °F 86% 30.01 in 5.0 mi East 12.7 mph - 0.00 in   Overcast
1:51 PM 60.1 °F 55.9 °F 86% 29.97 in 7.0 mi East 13.8 mph - 0.00 in   Light Drizzle
2:34 PM 61.0 °F 55.9 °F 83% 29.94 in 8.0 mi East 16.1 mph - 0.00 in   Overcast
2:51 PM 61.0 °F 55.9 °F 83% 29.92 in 8.0 mi ESE 16.1 mph - 0.00 in   Overcast
3:48 PM 60.8 °F 57.2 °F 88% 29.91 in 2.0 mi ESE 13.8 mph - N/A   Overcast
3:51 PM 60.1 °F 57.0 °F 90% 29.91 in 2.0 mi East 12.7 mph - N/A   Overcast
4:06 PM 60.1 °F 57.0 °F 90% 29.91 in 2.0 mi ESE 12.7 mph - N/A   Overcast
4:51 PM 60.1 °F 57.0 °F 90% 29.91 in 2.0 mi ESE 11.5 mph - 0.00 in   Light Drizzle
5:27 PM 60.1 °F 57.0 °F 90% 29.90 in 1.0 mi East 13.8 mph 20.7 mph 0.01 in   Light Drizzle
5:51 PM 59.0 °F 57.0 °F 93% 29.89 in 1.0 mi ESE 12.7 mph - 0.01 in   Light Drizzle
6:10 PM 59.0 °F 57.0 °F 93% 29.88 in 1.0 mi East 11.5 mph - 0.00 in   Light Drizzle
6:28 PM 59.0 °F 57.0 °F 93% 29.88 in 4.0 mi East 12.7 mph - 0.00 in   Light Drizzle
6:51 PM 59.0 °F 57.0 °F 93% 29.88 in 5.0 mi East 11.5 mph - 0.00 in   Light Drizzle
7:17 PM 59.0 °F 57.0 °F 93% 29.89 in 3.0 mi East 8.1 mph - 0.00 in   Light Drizzle
7:27 PM 59.0 °F 57.0 °F 93% 29.89 in 1.0 mi East 8.1 mph - 0.01 in   Light Drizzle
7:51 PM 59.0 °F 57.0 °F 93% 29.91 in 1.0 mi ESE 8.1 mph - 0.04 in Rain Rain
8:11 PM 59.0 °F 57.0 °F 93% 29.88 in 3.0 mi ESE 12.7 mph - 0.04 in Rain Rain
8:25 PM 59.0 °F 57.0 °F 93% 29.86 in 3.0 mi East 15.0 mph - 0.10 in Rain Rain
8:51 PM 60.1 °F 57.0 °F 90% 29.85 in 5.0 mi East 13.8 mph - 0.12 in Rain Light Rain
9:51 PM 60.1 °F 57.9 °F 93% 29.83 in 4.0 mi East 12.7 mph - 0.05 in Rain Light Rain
9:55 PM 61.0 °F 57.9 °F 90% 29.83 in 3.0 mi East 13.8 mph - 0.01 in Rain Light Rain
10:51 PM 62.1 °F 60.1 °F 93% 29.81 in 3.0 mi ESE 16.1 mph - 0.06 in Rain Light Rain
11:27 PM 62.1 °F 61.0 °F 96% 29.79 in 2.5 mi SE 11.5 mph - 0.04 in Rain Light Rain
11:51 PM 63.0 °F 61.0 °F 93% 29.78 in 2.5 mi SSE 12.7 mph - 0.07 in Rain Light Rain